Regional Weather Roundup
Issued by NWS

Home | Current Version | Previous Version | Graphics & Text | Print | Product List | Glossary On
Versions: 1 2 3 4 5 6 7 8 9 10 11 12 13 14 15 16 17 18 19 20 21 22 23 24 25 26 27 28 29 30 31 32 33 34 35 36 37 38 39 40 41 42 43 44 45 46 47 48 49 50
000
ASUS43 KMKX 130320
RWRWI

WISCONSIN REGIONAL WEATHER ROUNDUP
NATIONAL WEATHER SERVICE MILWAUKEE/SULLIVAN WI
900 PM CST TUE DEC 12 2017

NOTE: "FAIR" INDICATES FEW OR NO CLOUDS BELOW 12,000 FEET WITH NO
SIGNIFICANT WEATHER AND/OR OBSTRUCTIONS TO VISIBILITY.

WIZ001-002-006>008-014>016-023>028-130400-
NORTHWEST WISCONSIN

CITY           SKY/WX    TMP DP  RH WIND       PRES   REMARKS
SUPERIOR ARPT  CLOUDY    14  10  81 E5        29.81F WCI   7
ASHLAND        LGT SNOW  12   8  84 SE5       29.83F FOG     WCI   4
HAYWARD        CLOUDY    13   7  77 SE5       29.78F WCI   5
SIREN          CLOUDY    16  10  79 SE7       29.76F WCI   6
CUMBERLAND     CLOUDY    14   9  79 SE8       29.77F WCI   3
RICE LAKE      CLOUDY    14  10  84 CALM      29.82F
CHETEK         CLOUDY    14  10  82 SE6       29.82F WCI   5
LADYSMITH      LGT SNOW  13   8  79 SE7       29.84F WCI   3
EAU CLAIRE     CLOUDY    16  10  77 SE7       29.82F WCI   6
MENOMONIE      CLOUDY    17  12  79 E8        29.82F WCI   7
NEW RICHMOND   CLOUDY    19  13  76 SE8       29.76F WCI   9
OSCEOLA        CLOUDY    20  14  78 SE7       29.78F WCI  11
$$

WIZ003>005-009-010-017-018-130400-
NORTH CENTRAL WISCONSIN

CITY           SKY/WX    TMP DP  RH WIND       PRES   REMARKS
MANITOWISH WTR FLURRIES   9   2  73 S3        29.79F
ARBOR VITAE    CLOUDY    11   3  68 SW5       29.79F WCI   3
WOODRUFF       CLOUDY    11   3  68 SW5       29.79F WCI   3
RHINELANDER    CLOUDY    11   0  61 S3        29.81F
EAGLE RIVER    CLOUDY     9   2  75 CALM      29.80F
LAND O LAKES   CLOUDY     7   4  85 CALM      29.81F
PHILLIPS       FLURRIES  10   4  77 S5        29.81F WCI   2
TOMAHAWK       LGT SNOW  10   5  79 CALM      29.83F
MEDFORD        FLURRIES  11   5  77 S5        29.82F WCI   3
MERRILL        LGT SNOW  11   6  78 CALM      29.86F
$$

WIZ029-030-035-036-043>047-130400-
CENTRAL WISCONSIN

CITY           SKY/WX    TMP DP  RH WIND       PRES   REMARKS
WAUSAU         FLURRIES  12   3  67 SW5       29.85F WCI   4
MOSINEE        LGT SNOW  12   3  67 S3        29.88F
MARSHFIELD     FLURRIES  13   6  74 S5        29.84F WCI   5
STEVENS POINT  FLURRIES  12   1  60 S3        29.89F
WAUPACA        CLOUDY    17   4  57 CALM      29.92F
WAUTOMA        CLOUDY    15   3  59 CALM      29.93F
WISC RAPIDS    LGT SNOW  15   6  67 SW7       29.91F WCI   5
CAMP DOUGLAS   FLURRIES  18  10  73 E3        29.90F
$$

WIZ011>013-019>022-031-037>040-048>050-130400-
NORTHEAST WISCONSIN

CITY           SKY/WX    TMP DP  RH WIND       PRES   REMARKS
ANTIGO         CLOUDY    11   0  62 SW3       29.83F
SHAWANO        CLOUDY    17   3  55 W3        29.91F
OCONTO         CLOUDY    10   6  82 CALM      29.93F
STURGEON BAY   PTCLDY    15   5  64 NW7       29.92F WCI   5
GREEN BAY      CLOUDY    16   3  56 W5        29.94F WCI   9
MANITOWOC      CLOUDY    14   6  70 W5        29.95F WCI   6
APPLETON       CLOUDY    16   0  48 W6        29.92S WCI   7
CLINTONVILLE   CLOUDY    16   0  48 W6        29.91F WCI   7
OSHKOSH        CLOUDY    15   3  59 SW3       29.93F
$$

WIZ032>034-041-042-053>061-130400-
SOUTHWEST WISCONSIN

CITY           SKY/WX    TMP DP  RH WIND       PRES   REMARKS
LA CROSSE      CLOUDY    24  12  60 SE9       29.88F WCI  14
SPARTA         CLOUDY    19  12  73 SE3       29.89F
VIROQUA        CLOUDY    20  12  72 S8        29.85F WCI  10
BOSCOBEL       CLOUDY    25   9  50 S5        29.93F WCI  19
PRAIRIE DU CHI CLOUDY    25   8  48 S3        29.92F
PLATTEVILLE    CLOUDY    24  13  64 S7        29.93F WCI  15
$$

WIZ056-057-062-063-064-067-068-130400-
SOUTH CENTRAL WISCONSIN

CITY           SKY/WX    TMP DP  RH WIND       PRES   REMARKS
REEDSBURG      FLURRIES  18   7  62 S3        29.91F
BARABOO/DELLS  FLURRIES  18   7  64 SW5       29.91F WCI  11
LONE ROCK      LGT SNOW  20  10  65 E3        29.94F
MINERAL POINT  CLOUDY    25  10  54 S7        29.91F WCI  17
MADISON        FLURRIES  19   4  51 CALM      29.94F
MIDDLETON      CLOUDY    21   6  53 SW3       29.94F
WATERTOWN      CLOUDY    17   4  57 SW3       29.95S
MONROE         CLOUDY    23   9  54 SW8       29.93F WCI  14
JANESVILLE     CLOUDY    21   3  45 CALM      29.97S
$$

WIZ051-052-058>065-066-070>072-130400-
SOUTHEAST WISCONSIN

CITY           SKY/WX    TMP DP  RH WIND       PRES   REMARKS
MILWAUKEE      CLOUDY    20   2  45 W8        29.96F WCI  10
WAUKESHA       CLOUDY    16   1  53 W9        29.96S WCI   4
MILWAUKEE/TIMM CLOUDY    18   0  45 W6        29.96F WCI   9
RACINE         CLOUDY    18   5  57 CALM      29.98F
BURLINGTON       N/A    N/A N/A N/A MISG        N/A
KENOSHA        CLOUDY    19   4  51 NW7       29.96F WCI  10
FOND DU LAC    CLOUDY    16   2  54 CALM      29.94F
SHEBOYGAN      CLOUDY    16   5  62 NW5       29.94F WCI   9
WEST BEND      CLOUDY    18   1  49 W8        29.95R WCI   7
JUNEAU         CLOUDY    15   4  63 SW3       29.95F
$$

LSZ147-162-130400-
LAKE SUPERIOR

STATION/POSITION TIME  TEMP    WIND        PRES    WAVE
                       AIR SEA DIR/SP/G            HT/PER
                 (UTC) (F)     (DEG/KT/KT) (MB)    (FT/S)
DEVILS ISLAND    0300   15     180/  7/ 10 1011.4F
SAXON HARBOR     0230   14                 1010.8F
$$

LMZ867-665-643>646-130400-
LAKE MICHIGAN

STATION/POSITION TIME  TEMP    WIND        PRES    WAVE
                       AIR SEA DIR/SP/G            HT/PER
                 (UTC) (F)     (DEG/KT/KT) (MB)    (FT/S)
NORTHPORT PIER   0239   17     310/  9/ 15 1013.2F
KEWAUNEE LAKESHO 0300   13     290/  2/  5 1013.1
SHEBOYGAN LAKESH 0300   17     300/  9/ 11 1015.5F
PORT WASHINGTON  0240   18     310/  5/  7 1015.6F
MILWAUKEE LAKESH 0300   19     290/ 10/ 12   N/A
KENOSHA   LAKESH 0300   19     300/  7/ 12 1014.9
$$

TC  - TEMPERATURE IN CELSIUS
VSB - VISIBILITY IN STATUTE MILES
WCI - WIND CHILL INDEX
HX  - HEAT INDEX




USA.gov is the U.S. government's official web portal to all federal, state and local government web resources and services.